NOAA 16 DEB, 41045

Orbit data source: Space-Track

NOAA 16 DEB, 41045 is space debris in SSO originally from a launch on Thu, 21 Sep 2000 UTC launched from the Air Force Western Test Range (AFWTR). Debris objects in space refer to the collection of defunct objects orbiting the Earth. Examples of debris include non-operational satellites, rocket bodies, and fragments generated from explosions, collisions, or faulty payload assembly.

Loading next visibility...
Identifier
41045, 2000-055C
Orbit
SSO
Country
Flag of USUS
Related business
Manufacturer
Unknown
Mission
Spacecraft
Bus & Motor
Unknown
Mass
Unknown
Launch date (UTC)
2000-09-21 (26 years ago)
Launch vehicle
Unknown
Launch site
Air Force Western Test Range (AFWTR)
Object type
Payload
Rocket body
Debris
Shape & HBR
Unknown shape, 0.1 m
Radar Cross Section
Medium (>0.1 m² and <1 m²)

Expand to show TLE details & history
Last TLE update: 3 days ago

TLE from 3 days ago
0 NOAA 16 DEB
1 41045U 00055C   26170.94556306  .00000045  00000-0  44348-4 0  9994
2 41045  98.4500 177.1005 0012096 273.1511  86.8279 14.14818946545540
Epoch: 2026-06-19T22:41Z
TLE epoch observation values (Epoch: 2026-06-19T22:41:36.648Z)
Latitude
-0.00006°
Longitude
-71.46945°
Altitude
845.371 km
Speed
7.43 km/s
True Right ascension
11h 48m 24s
True Declination
0° 00' 00"
Sunlit
Object was in daylight at epoch
Visualization orbit readout
Latitude
Unknown
Longitude
Unknown
Altitude
Unknown
Speed
Unknown
Apparent Right ascension
Unknown
Apparent Declination
Unknown
Sunlit
N/A
Visualization observer readout
Local Sidereal Time
21:56:53
Azimuth
Unknown
Elevation
Unknown
Doppler factor
Unknown
Orbital elements
Apogee altitude
848.813 km
Perigee altitude
831.35 km
Semi-major axis
7,218.218 km
Eccentricity
0.00121
Inclination
98.45°
RAAN
177.1005°
Arg. of periapsis
273.1511°
True anomaly
86.96631°
Mean anomaly
86.8279°
Eccentric anomaly
86.8971°
Mean motion
3.53914 °/min
Orbital period
101.72 mins
BSTAR
0.000044348
Loading maneuver chart data...
Computing Atmospheric mass density...
Loading historical data...
Loading historical data...
Loading historical data...
Loading historical data...
Loading historical data...
Loading historical data...
Loading historical data...

Documentation

Showing up to 5 results
|